This demonstration page uses our WeatherBlox Daily Observations layout. Learn more.

40.92945, -100.16068

Hourly Observations for January 3, 2020

Temp ( °F °C ) Dew Point ( °F °C ) Humidity (%) Winds ( mph kmh ) Pressure ( in mb ) Visibility ( mi km ) Precip ( " mm )
12:15 am 00:15 Clear 28 -2.5 27 -3 96 96 NW 5 7 29.93 1014 10 16.0934 0 0
12:35 am 00:35 Clear 26 -3.2 25 -3.7 96 96 NW 7 11 29.94 1014 10 16.0934 0 0
12:55 am 00:55 Clear 27 -2.9 26 -3.5 96 96 WNW 7 11 29.95 1014 10 16.0934 0 0
1:15 am 01:15 Partly Cloudy 27 -3 26 -3.6 96 96 NW 7 11 29.95 1014 10 16.0934 0 0
1:35 am 01:35 Partly Cloudy 26 -3.1 25 -3.7 96 96 WNW 9 15 29.95 1014 10 16.0934 0 0
1:55 am 01:55 Partly Cloudy 26 -3.3 25 -3.9 96 96 WNW 10 17 29.97 1015 10 16.0934 0 0
2:15 am 02:15 Partly Cloudy 29 -1.9 26 -3.2 91 91 WNW 14 22 29.97 1015 10 16.0934 0 0
2:35 am 02:35 Mostly Cloudy 30 -1 28 -2.5 90 90 NW 13 20 29.97 1015 10 16.0934 0 0
2:55 am 02:55 Cloudy 31 -0.3 29 -1.6 91 91 NW 14 22 29.97 1015 10 16.0934 0 0
3:15 am 03:15 Cloudy 33 0.5 31 -0.5 93 93 NW 15 24 29.97 1015 10 16.0934 0 0
3:35 am 03:35 Cloudy 34 1.1 32 0 92 92 NW 15 24 29.98 1015 10 16.0934 0 0
3:55 am 03:55 Cloudy 35 1.7 32 0.2 90 90 NW 15 24 29.98 1015 10 16.0934 0 0
4:15 am 04:15 Cloudy with Light Rain 35 1.7 33 0.5 92 92 NNW 14 22 29.97 1015 10 16.0934 0 0
4:35 am 04:35 Cloudy 35 1.6 33 0.5 93 93 NNW 9 15 29.98 1015 10 16.0934 0 0
4:55 am 04:55 Partly Cloudy 33 0.7 32 0 95 95 NW 8 13 29.99 1016 10 16.0934 0 0
5:15 am 05:15 Clear 33 0.4 31 -0.5 94 94 NW 9 15 29.99 1016 10 16.0934 0 0
5:35 am 05:35 Clear 32 0 30 -1.1 92 92 WNW 12 19 30.01 1016 10 16.0934 0 0
5:55 am 05:55 Clear 31 -0.4 30 -1.1 95 95 WNW 13 20 30.02 1017 10 16.0934 0 0
6:15 am 06:15 Partly Cloudy 31 -0.3 30 -1.1 94 94 WNW 16 26 30.02 1017 10 16.0934 0 0
6:35 am 06:35 Partly Cloudy 31 -0.3 29 -1.5 92 92 WNW 14 22 30.02 1017 10 16.0934 0 0
6:55 am 06:55 Clear 31 -0.8 28 -2 92 92 WNW 15 24 30.04 1017 10 16.0934 0 0
7:15 am 07:15 Clear 30 -1.2 28 -2.5 91 91 WNW 14 22 30.06 1018 10 16.0934 0 0
7:35 am 07:35 Clear 29 -1.5 27 -2.9 90 90 WNW 14 22 30.07 1018 10 16.0934 0 0
7:55 am 07:55 Clear 29 -1.8 26 -3.2 90 90 WNW 13 20 30.08 1019 10 16.0934 0 0
8:15 am 08:15 Partly Cloudy 28 -2.1 26 -3.5 90 90 WNW 12 19 30.1 1019 10 16.0934 0 0
8:35 am 08:35 Partly Cloudy 28 -2.2 25 -3.7 90 90 WNW 12 19 30.11 1020 10 16.0934 0 0
8:55 am 08:55 Sunny 28 -2.1 25 -3.7 89 89 W 12 19 30.12 1020 10 16.0934 0 0
9:15 am 09:15 Mostly Cloudy 30 -1.2 26 -3.3 86 86 WNW 10 17 30.12 1020 10 16.0934 0 0
9:35 am 09:35 Partly Cloudy 30 -1 26 -3.1 86 86 WNW 10 17 30.14 1021 10 16.0934 0 0
9:55 am 09:55 Sunny 31 -0.6 27 -3 84 84 WNW 13 20 30.13 1020 10 16.0934 0 0
10:15 am 10:15 Sunny 31 -0.5 27 -2.7 85 85 WNW 10 17 30.13 1020 10 16.0934 0 0
10:35 am 10:35 Sunny 32 0.1 28 -2.3 84 84 WNW 12 19 30.14 1021 10 16.0934 0 0
10:55 am 10:55 Sunny 33 0.5 28 -2.4 81 81 NW 13 20 30.13 1020 10 16.0934 0 0
11:15 am 11:15 Sunny 33 0.5 28 -2.4 81 81 NW 14 22 30.13 1020 10 16.0934 0 0
11:35 am 11:35 Sunny 33 0.8 27 -2.6 78 78 NW 12 19 30.12 1020 10 16.0934 0 0
11:55 am 11:55 Partly Cloudy 34 1.1 28 -2.3 78 78 WNW 12 19 30.12 1020 10 16.0934 0 0
12:15 pm 12:15 Mostly Cloudy 35 1.4 27 -2.9 73 73 NNW 16 26 30.1 1019 10 16.0934 0 0
12:35 pm 12:35 Cloudy 35 1.6 25 -3.9 67 67 NW 14 22 30.09 1019 10 16.0934 0 0
12:55 pm 12:55 Mostly Cloudy 35 1.7 25 -3.8 67 67 NW 14 22 30.09 1019 10 16.0934 0 0
1:15 pm 13:15 Mostly Cloudy 36 2 25 -3.9 65 65 NW 15 24 30.08 1019 10 16.0934 0 0
1:35 pm 13:35 Partly Cloudy 36 2 23 -5.1 60 60 NW 15 24 30.08 1019 10 16.0934 0 0
1:55 pm 13:55 Mostly Cloudy 36 2 23 -4.8 61 61 NW 15 24 30.08 1019 10 16.0934 0 0
2:15 pm 14:15 Cloudy 36 2 22 -5.6 58 58 NW 15 24 30.08 1019 10 16.0934 0 0
2:35 pm 14:35 Cloudy 35 1.6 22 -5.8 58 58 NW 16 26 30.08 1019 10 16.0934 0 0
2:55 pm 14:55 Cloudy 35 1.6 23 -5 62 62 NW 13 20 30.09 1019 10 16.0934 0 0
3:15 pm 15:15 Cloudy 35 1.5 23 -5 62 62 NW 15 24 30.1 1019 10 16.0934 0 0
3:35 pm 15:35 Cloudy 34 1.1 23 -5 64 64 NW 13 20 30.12 1020 10 16.0934 0 0
3:55 pm 15:55 Cloudy 34 1 23 -5 65 65 NNW 9 15 30.13 1020 10 16.0934 0 0
4:15 pm 16:15 Cloudy 34 1 24 -4.3 68 68 NW 10 17 30.13 1020 10 16.0934 0 0
4:35 pm 16:35 Cloudy 33 0.7 24 -4.3 70 70 NW 9 15 30.13 1020 10 16.0934 0 0
4:55 pm 16:55 Cloudy 33 0.5 25 -3.8 73 73 NW 8 13 30.14 1021 10 16.0934 0 0
5:15 pm 17:15 Cloudy 33 0.3 25 -3.7 75 75 NW 8 13 30.15 1021 10 16.0934 0 0
5:35 pm 17:35 Cloudy 32 0.1 25 -3.7 76 76 NW 8 13 30.16 1021 10 16.0934 0 0
5:55 pm 17:55 Cloudy 32 0 25 -3.8 76 76 NW 8 13 30.16 1021 10 16.0934 0 0
6:15 pm 18:15 Cloudy 32 0 25 -3.7 76 76 NNW 6 9 30.17 1022 10 16.0934 0 0
6:35 pm 18:35 Cloudy 32 -0.2 26 -3.1 81 81 NW 5 7 30.18 1022 10 16.0934 0 0
6:55 pm 18:55 Cloudy 31 -0.4 26 -3.1 82 82 NNW 5 7 30.2 1023 10 16.0934 0 0
7:15 pm 19:15 Cloudy 31 -0.5 26 -3.1 83 83 NNW 6 9 30.2 1023 10 16.0934 0 0
7:35 pm 19:35 Cloudy 31 -0.6 27 -3 84 84 N 5 7 30.21 1023 10 16.0934 0 0
7:55 pm 19:55 Cloudy 31 -0.8 27 -3 85 85 Calm 30.23 1024 10 16.0934 0 0
8:15 pm 20:15 Cloudy 30 -1 27 -2.8 88 88 NNE 3 6 30.24 1024 10 16.0934 0 0
8:35 pm 20:35 Cloudy 31 -0.7 24 -4.2 77 77 N 5 7 30.24 1024 10 16.0934 0 0
8:55 pm 20:55 Cloudy 31 -0.7 23 -5 73 73 N 6 9 30.24 1024 10 16.0934 0 0
9:15 pm 21:15 Cloudy 29 -1.4 23 -5.2 76 76 N 5 7 30.24 1024 10 16.0934 0 0
9:35 pm 21:35 Cloudy 29 -1.6 23 -5 78 78 Calm 30.25 1024 10 16.0934 0 0
9:55 pm 21:55 Cloudy 29 -1.6 22 -5.5 75 75 NW 6 9 30.26 1025 10 16.0934 0 0
10:15 pm 22:15 Cloudy 29 -1.8 22 -5.3 77 77 NW 5 7 30.28 1025 10 16.0934 0 0
10:35 pm 22:35 Mostly Cloudy 28 -2.5 22 -5.5 80 80 N 5 7 30.28 1025 10 16.0934 0 0
10:55 pm 22:55 Clear 26 -3.2 22 -5.5 84 84 Calm 30.3 1026 10 16.0934 0 0
11:15 pm 23:15 Clear 26 -3.5 22 -5.6 86 86 NW 3 6 30.31 1027 10 16.0934 0 0
11:35 pm 23:35 Clear 24 -4.6 21 -6 90 90 W 5 7 30.31 1027 10 16.0934 0 0
11:55 pm 23:55 Clear 24 -4.5 21 -6 89 89 W 3 6 30.32 1027 10 16.0934 0 0

Powered by AerisWeather